Location: Newark
(9.4667°S, 159.8167°E)
Time: 01:21:21
(UTC+00:00)

Courier 1B Rocket - All Passes

Search period start: 20 November 2019 00:00
Search period end: 30 November 2019 00:00
Orbit: 920 x 1202 km, 28.2° (Epoch: 19 November)

Date Brightness Start Highest point End Pass type
(mag) Time Alt. Az. Time Alt. Az. Time Alt. Az.
20 Nov - 00:51:10 10° WNW 00:55:50 21° NNW 01:00:42 10° NNE daylight
20 Nov - 10:29:44 10° NNW 10:35:14 21° NNE 10:40:36 10° ENE night (unlit)
20 Nov - 12:21:28 10° NW 12:29:09 67° NNE 12:36:25 10° ESE night (unlit)
20 Nov - 14:15:58 10° W 14:23:01 43° SSW 14:29:37 10° SE visible
20 Nov - 16:12:46 10° SW 16:17:30 19° SSW 16:22:03 10° SSE visible
20 Nov - 18:09:19 10° SSW 18:12:40 14° S 18:15:55 10° SSE visible
20 Nov - 20:02:32 10° SW 20:07:31 23° SSE 20:12:24 10° ESE daylight
20 Nov - 21:55:10 10° SW 22:01:24 68° SSE 22:07:40 10° ENE daylight
20 Nov - 23:49:14 10° W 23:54:45 32° NNW 00:00:27 10° NNE daylight
21 Nov - 09:30:16 10° N 09:33:45 13° NNE 09:37:13 10° NE visible
21 Nov - 11:20:27 10° NW 11:27:51 46° NNE 11:34:59 10° E night (unlit)
21 Nov - 13:14:06 10° WNW 13:21:41 60° SSW 13:28:49 10° SE night (unlit)
21 Nov - 15:10:15 10° WSW 15:15:57 24° SSW 15:21:23 10° SE visible
21 Nov - 17:07:26 10° SW 17:11:00 14° S 17:14:29 10° SSE visible
21 Nov - 19:01:41 10° SSW 19:06:07 19° SSE 19:10:25 10° SE daylight
21 Nov - 20:54:17 10° SW 21:00:20 45° SSE 21:06:18 10° E daylight
21 Nov - 22:47:44 10° WSW 22:53:46 50° NNW 22:59:53 10° NE daylight
22 Nov - 00:44:46 10° NW 00:47:20 12° NNW 00:49:55 10° N daylight
22 Nov - 10:19:46 10° NNW 10:26:31 31° NNE 10:33:09 10° E visible
22 Nov - 12:12:31 10° WNW 12:20:22 85° SSW 12:27:50 10° ESE night (unlit)
22 Nov - 14:07:52 10° W 14:14:28 32° SSW 14:20:43 10° SE visible
22 Nov - 16:05:04 10° SW 16:09:19 16° S 16:13:25 10° SSE visible
22 Nov - 18:00:35 10° SSW 18:04:34 16° S 18:08:26 10° SE visible
22 Nov - 19:53:27 10° SW 19:59:10 32° SSE 20:04:43 10° E daylight
22 Nov - 21:46:30 10° WSW 21:52:48 78° NNW 21:59:04 10° ENE daylight
22 Nov - 23:41:45 10° WNW 23:46:10 20° NNW 23:50:39 10° NNE daylight
23 Nov - 09:19:32 10° NNW 09:25:08 21° NNE 09:30:44 10° ENE visible
23 Nov - 11:11:14 10° NW 11:19:02 69° NNE 11:26:37 10° ESE night (unlit)
23 Nov - 13:05:45 10° W 13:13:01 43° SSW 13:19:57 10° SE night (unlit)
23 Nov - 15:02:32 10° WSW 15:07:40 20° SSW 15:12:35 10° SSE visible
23 Nov - 16:59:05 10° SSW 17:02:55 15° S 17:06:38 10° SE visible
23 Nov - 18:52:35 10° SW 18:57:52 25° SSE 19:02:57 10° ESE daylight
23 Nov - 20:45:25 10° SW 20:51:48 70° SSE 20:58:01 10° ENE daylight
23 Nov - 22:39:42 10° W 22:45:07 31° NNW 22:50:35 10° NNE daylight
24 Nov - 08:20:07 10° N 08:23:41 14° NNE 08:27:18 10° ENE visible
24 Nov - 10:10:16 10° NW 10:17:42 47° NNE 10:25:06 10° ESE visible
24 Nov - 12:03:54 10° WNW 12:11:36 60° SSW 12:19:02 10° SE night (unlit)
24 Nov - 14:00:01 10° WSW 14:06:02 25° SSW 14:11:48 10° SE visible
24 Nov - 15:57:08 10° SW 16:01:13 16° S 16:05:09 10° SSE visible
24 Nov - 17:51:35 10° SSW 17:56:25 20° SSE 18:01:02 10° ESE visible
24 Nov - 19:44:26 10° SW 19:50:43 47° SSE 19:56:44 10° E daylight
24 Nov - 21:38:05 10° WSW 21:44:09 49° NNW 21:50:08 10° NE daylight
24 Nov - 23:35:39 10° NW 23:37:39 11° NNW 23:39:39 10° N daylight
25 Nov - 09:09:39 10° NNW 09:16:23 32° NNE 09:23:10 10° E visible
25 Nov - 11:02:21 10° WNW 11:10:13 84° SSW 11:17:57 10° ESE visible
25 Nov - 12:57:39 10° W 13:04:28 32° SSW 13:11:00 10° SE night (unlit)
25 Nov - 14:54:47 10° SW 14:59:28 17° S 15:03:58 10° SSE visible
25 Nov - 16:50:21 10° SSW 16:54:49 17° S 16:59:07 10° SE visible
25 Nov - 18:43:29 10° SW 18:49:31 34° SSE 18:55:14 10° E daylight
25 Nov - 20:36:43 10° WSW 20:43:12 76° NNW 20:49:25 10° NE daylight
25 Nov - 22:32:14 10° WNW 22:36:31 19° NNW 22:40:47 10° NNE daylight
26 Nov - 08:09:30 10° NNW 08:15:02 21° NNE 08:20:41 10° ENE visible
26 Nov - 10:01:07 10° NW 10:08:53 70° NNE 10:16:39 10° ESE visible
26 Nov - 11:55:34 10° W 12:02:56 43° SSW 12:10:08 10° SE night (unlit)
26 Nov - 13:52:16 10° WSW 13:57:43 21° SSW 14:02:59 10° SSE visible
26 Nov - 15:48:46 10° SW 15:53:07 16° S 15:57:18 10° SE visible
26 Nov - 17:42:29 10° SW 17:48:09 26° SSE 17:53:31 10° ESE visible
26 Nov - 19:35:32 10° WSW 19:42:10 72° SSE 19:48:27 10° ENE daylight
26 Nov - 21:30:01 10° W 21:35:29 30° NNW 21:40:52 10° NNE daylight
27 Nov - 07:10:12 10° N 07:13:39 14° NNE 07:17:10 10° ENE daylight
27 Nov - 09:00:13 10° NW 09:07:33 48° NNE 09:15:02 10° ESE visible
27 Nov - 10:53:46 10° WNW 11:01:28 59° SSW 11:09:07 10° SE visible
27 Nov - 12:49:48 10° WSW 12:56:01 25° SSW 13:02:04 10° SE night (unlit)
27 Nov - 14:46:47 10° SW 14:51:20 17° S 14:55:43 10° SE visible
27 Nov - 16:41:21 10° SW 16:46:39 21° SSE 16:51:40 10° ESE visible
27 Nov - 18:34:25 10° SW 18:41:03 50° SSE 18:47:14 10° E daylight
27 Nov - 20:28:16 10° WSW 20:34:32 48° NNW 20:40:31 10° NE daylight
27 Nov - 22:26:20 10° NW 22:27:59 11° NNW 22:29:36 10° NNW daylight
28 Nov - 07:59:41 10° NNW 08:06:16 32° NNE 08:13:04 10° E visible
28 Nov - 09:52:17 10° WNW 10:00:03 82° SSW 10:07:57 10° ESE visible
28 Nov - 11:47:30 10° W 11:54:23 32° SSW 12:01:08 10° SE visible
28 Nov - 13:44:29 10° SW 13:49:30 18° S 13:54:24 10° SE visible
28 Nov - 15:40:02 10° SW 15:44:59 19° S 15:49:44 10° SE visible
28 Nov - 17:33:21 10° SW 17:39:46 36° SSE 17:45:47 10° E visible
28 Nov - 19:26:48 10° WSW 19:33:33 75° NNW 19:39:52 10° NE daylight
28 Nov - 21:22:33 10° WNW 21:26:52 19° NNW 21:31:04 10° NNE daylight
29 Nov - 06:59:38 10° NNW 07:04:58 21° NNE 07:10:31 10° ENE daylight
29 Nov - 08:51:08 10° NW 08:58:43 71° NNE 09:06:33 10° ESE visible
29 Nov - 10:45:28 10° W 10:52:48 43° SSW 11:00:09 10° SE visible
29 Nov - 12:42:03 10° WSW 12:47:42 21° SSW 12:53:14 10° SE night (unlit)
29 Nov - 14:38:25 10° SW 14:43:12 17° S 14:47:50 10° SE visible
29 Nov - 16:32:15 10° SW 16:38:21 28° SSE 16:44:06 10° ESE visible
29 Nov - 18:25:29 10° WSW 18:32:28 75° SSE 18:38:57 10° ENE visible
29 Nov - 20:20:11 10° W 20:25:50 30° NNW 20:31:15 10° NNE daylight
